This is the latest recevied weather packets stored in our database for station/object AC4AG. If no packets are shown the sender has not sent any weather packets the latest 10 day(s).
| Time | Temp. | Humidity | Pressure | Rain* | Wind** | Luminosity | Snow |
|---|---|---|---|---|---|---|---|
| 1777487492 | 19.44° C | 88% | 1010 hPa | 0 mm | - | 310 W/m² | - |
| 1777487189 | 19.44° C | 90% | 1010 hPa | 0 mm | - | 699 W/m² | - |
| 1777486885 | 18.89° C | 90% | 1010.3 hPa | 0 mm | - | 780 W/m² | - |
| 1777486582 | 18.89° C | 91% | 1010 hPa | 0 mm | - | 551 W/m² | - |
| 1777486280 | 18.89° C | 92% | 1010.1 hPa | 0 mm | - | 691 W/m² | - |
| 1777485977 | 18.33° C | 93% | 1010.4 hPa | 0 mm | - | 383 W/m² | - |
| 1777485673 | 18.33° C | 94% | 1009.9 hPa | 0 mm | - | 190 W/m² | - |
| 1777485368 | 18.89° C | 93% | 1009.9 hPa | 0 mm | - | 263 W/m² | - |
| 1777485065 | 18.89° C | 94% | 1010 hPa | 0 mm | - | 340 W/m² | - |
| 1777484762 | 18.89° C | 94% | 1009.9 hPa | 0 mm | - | 342 W/m² | - |
| 1777484458 | 18.33° C | 96% | 1009.9 hPa | 0 mm | - | 1030 W/m² | - |
| 1777484155 | 18.33° C | 97% | 1009.9 hPa | 0 mm | - | 389 W/m² | - |
| 1777483851 | 17.78° C | 99% | 1009.9 hPa | 0 mm | - | 464 W/m² | - |
| 1777483548 | 17.22° C | 99% | 1010.3 hPa | 0 mm | - | 631 W/m² | - |
| 1777483243 | 17.78° C | 99% | 1010.1 hPa | 0 mm | - | 344 W/m² | - |
| 1777482939 | 17.22° C | 99% | 1010 hPa | 0 mm | - | 585 W/m² | - |
| 1777482635 | 16.67° C | 99% | 1010.1 hPa | 0 mm | - | 758 W/m² | - |
| 1777482332 | 16.67° C | 99% | 1010.5 hPa | 0 mm | - | 227 W/m² | - |
| 1777482030 | 16.11° C | 99% | 1010.5 hPa | 0 mm | - | 242 W/m² | - |
| 1777481727 | 16.11° C | 99% | 1010.4 hPa | 0 mm | - | 162 W/m² | - |
| 1777481425 | 16.11° C | 99% | 1010.4 hPa | 0 mm | - | 252 W/m² | - |
| 1777481121 | 16.11° C | 99% | 1010.6 hPa | 0 mm | - | 213 W/m² | - |
| 1777480817 | 16.11° C | 99% | 1010.4 hPa | 0 mm | - | 244 W/m² | - |
| 1777480514 | 16.11° C | 99% | 1010.7 hPa | 0 mm | - | 135 W/m² | - |
| 1777480210 | 16.11° C | 99% | 1010.8 hPa | 0 mm | - | 115 W/m² | - |
* Rain latest hour (hover to see other rain measurements)
** Current wind speed in m/s (hover to see current wind gust speed)